.
WxDataArchive / Data Records for 2010-10-29
2010-10-28 October 2010 2010-10-30

Data Records for Friday, 29 October 2010

Time	Temp	Chill	HIndex	Humid	Dewpt	 Wind 	HiWind	WindDir	Rain 	Barom 
-----	----	-----	------	-----	-----	------	------	-------	-----	----- 
00:00	43.1	43.1	43.1	65	32.1	3	5	225	0.00	30.247 
00:05	43.1	43.1	43.1	65	32.1	2	4	225	0.00	30.247 
00:10	43.1	43.1	43.1	65	32.1	2	5	248	0.00	30.247 
00:15	43.1	43.1	43.1	66	32.5	2	4	248	0.00	30.251 
00:20	42.9	42.9	42.9	66	32.3	2	5	292	0.00	30.251 
00:25	42.9	42.9	42.9	66	32.3	2	5	292	0.00	30.251 
00:30	42.9	42.9	42.9	66	32.3	2	5	248	0.00	30.248 
00:35	42.8	42.8	42.8	66	32.2	2	4	270	0.00	30.248 
00:40	42.8	42.8	42.8	66	32.2	2	5	248	0.00	30.248 
00:45	42.6	42.6	42.6	66	32.0	2	9	248	0.00	30.245 
00:50	42.6	42.6	42.6	67	32.4	2	4	248	0.00	30.245 
00:55	42.5	42.5	42.5	67	32.3	2	5	248	0.00	30.245 
01:00	42.5	42.5	42.5	66	32.0	3	9	248	0.00	30.247 
01:05	42.3	42.3	42.3	67	32.1	2	4	270	0.00	30.247 
01:10	42.3	42.3	42.3	67	32.1	1	4	270	0.00	30.247 
01:15	42.3	42.3	42.3	67	32.1	2	4	270	0.00	30.250 
01:20	42.2	42.2	42.2	67	32.0	2	6	270	0.00	30.250 
01:25	42.2	42.2	42.2	67	32.0	2	4	270	0.00	30.250 
01:30	42.2	42.2	42.2	67	32.0	2	4	270	0.00	30.253 
01:35	42.2	42.2	42.2	67	32.0	2	3	270	0.00	30.253 
01:40	42.1	42.1	42.1	67	31.9	1	4	270	0.00	30.253 
01:45	42.1	42.1	42.1	67	31.9	2	4	248	0.00	30.252 
01:50	42.1	42.1	42.1	66	31.6	2	3	248	0.00	30.252 
01:55	42.1	42.1	42.1	66	31.6	2	4	248	0.00	30.252 
02:00	42.1	42.1	42.1	66	31.6	2	4	248	0.00	30.245 
02:05	41.9	41.9	41.9	66	31.4	1	5	248	0.00	30.245 
02:10	41.9	41.9	41.9	66	31.4	2	4	225	0.00	30.245 
02:15	41.8	41.8	41.8	66	31.3	2	6	248	0.00	30.249 
02:20	41.8	41.8	41.8	66	31.3	1	6	225	0.00	30.249 
02:25	41.6	41.6	41.6	67	31.5	1	4	225	0.00	30.249 
02:30	41.6	41.6	41.6	67	31.5	1	4	270	0.00	30.243 
02:35	41.6	41.6	41.6	67	31.5	1	3	270	0.00	30.243 
02:40	41.6	41.6	41.6	67	31.5	2	4	248	0.00	30.243 
02:45	41.5	41.5	41.5	67	31.4	1	5	248	0.00	30.244 
02:50	41.5	41.5	41.5	67	31.4	1	4	270	0.00	30.244 
02:55	41.5	41.5	41.5	67	31.4	2	4	270	0.00	30.244 
03:00	41.5	41.5	41.5	67	31.4	2	7	248	0.00	30.243 
03:05	41.5	41.5	41.5	66	31.0	2	5	248	0.00	30.243 
03:10	41.5	41.5	41.5	66	31.0	1	3	248	0.00	30.243 
03:15	41.3	41.3	41.3	66	30.8	2	6	248	0.00	30.248 
03:20	41.3	41.3	41.3	66	30.8	2	4	248	0.00	30.248 
03:25	41.3	41.3	41.3	66	30.8	2	4	248	0.00	30.248 
03:30	41.3	41.3	41.3	66	30.8	1	4	248	0.00	30.256 
03:35	41.2	41.2	41.2	66	30.7	1	6	248	0.00	30.256 
03:40	41.2	41.2	41.2	66	30.7	2	5	248	0.00	30.256 
03:45	41.2	41.2	41.2	65	30.3	2	4	248	0.00	30.257 
03:50	41.2	41.2	41.2	66	30.7	1	4	248	0.00	30.257 
03:55	41.1	41.1	41.1	66	30.6	1	4	248	0.00	30.257 
04:00	41.1	41.1	41.1	66	30.6	1	4	270	0.00	30.258 
04:05	41.1	41.1	41.1	66	30.6	1	5	270	0.00	30.258 
04:10	40.9	40.9	40.9	66	30.4	1	4	270	0.00	30.258 
04:15	40.9	40.9	40.9	67	30.8	0	2	270	0.00	30.260 
04:20	40.9	40.9	40.9	66	30.4	1	3	270	0.00	30.260 
04:25	40.8	40.8	40.8	67	30.7	1	4	270	0.00	30.260 
04:30	40.8	40.8	40.8	67	30.7	1	5	248	0.00	30.259 
04:35	40.8	40.8	40.8	67	30.7	1	3	248	0.00	30.259 
04:40	40.8	40.8	40.8	66	30.3	1	3	248	0.00	30.259 
04:45	40.8	40.8	40.8	66	30.3	1	3	248	0.00	30.260 
04:50	40.8	40.8	40.8	66	30.3	1	4	248	0.00	30.260 
04:55	40.8	40.8	40.8	66	30.3	1	6	248	0.00	30.260 
05:00	40.8	40.8	40.8	66	30.3	1	4	270	0.00	30.268 
05:05	40.8	40.8	40.8	66	30.3	2	4	270	0.00	30.268 
05:10	40.8	40.8	40.8	66	30.3	1	3	315	0.00	30.268 
05:15	40.8	40.8	40.8	65	30.0	2	4	270	0.00	30.274 
05:20	40.8	40.8	40.8	66	30.3	1	3	248	0.00	30.274 
05:25	40.8	40.8	40.8	65	30.0	1	4	248	0.00	30.274 
05:30	40.8	40.8	40.8	65	30.0	1	3	248	0.00	30.276 
05:35	40.8	40.8	40.8	65	30.0	1	3	248	0.00	30.276 
05:40	40.8	40.8	40.8	65	30.0	1	2	248	0.00	30.276 
05:45	40.6	40.6	40.6	65	29.8	1	4	248	0.00	30.284 
05:50	40.6	40.6	40.6	65	29.8	1	4	270	0.00	30.284 
05:55	40.5	40.5	40.5	65	29.7	2	5	248	0.00	30.284 
06:00	40.5	40.5	40.5	65	29.7	2	4	248	0.00	30.286 
06:05	40.5	40.5	40.5	65	29.7	1	3	248	0.00	30.286 
06:10	40.3	40.3	40.3	65	29.5	2	3	248	0.00	30.286 
06:15	40.3	40.3	40.3	65	29.5	1	3	248	0.00	30.289 
06:20	40.3	40.3	40.3	65	29.5	2	4	292	0.00	30.289 
06:25	40.3	40.3	40.3	65	29.5	1	3	225	0.00	30.289 
06:30	40.3	40.3	40.3	65	29.5	1	3	225	0.00	30.296 
06:35	40.2	40.2	40.2	65	29.4	1	3	225	0.00	30.296 
06:40	40.2	40.2	40.2	65	29.4	1	3	248	0.00	30.296 
06:45	40.2	40.2	40.2	65	29.4	2	4	248	0.00	30.299 
06:50	40.1	40.1	40.1	65	29.3	1	3	248	0.00	30.299 
06:55	40.1	40.1	40.1	65	29.3	1	3	248	0.00	30.299 
07:00	40.1	40.1	40.1	66	29.7	0	2	248	0.00	30.304 
07:05	40.1	40.1	40.1	66	29.7	1	4	248	0.00	30.304 
07:10	40.1	40.1	40.1	66	29.7	1	4	248	0.00	30.304 
07:15	39.9	39.9	39.9	66	29.5	1	4	292	0.00	30.306 
07:20	39.9	39.9	39.9	66	29.5	1	3	292	0.00	30.306 
07:25	39.9	39.9	39.9	66	29.5	1	3	292	0.00	30.306 
07:30	39.8	39.8	39.8	66	29.4	1	3	292	0.00	30.313 
07:35	39.8	39.8	39.8	66	29.4	1	3	292	0.00	30.313 
07:40	39.6	39.6	39.6	66	29.2	2	5	292	0.00	30.313 
07:45	39.6	39.6	39.6	67	29.6	2	4	248	0.00	30.317 
07:50	39.5	39.5	39.5	67	29.5	1	3	248	0.00	30.317 
07:55	39.5	39.5	39.5	67	29.5	1	3	248	0.00	30.317 
08:00	39.5	39.5	39.5	67	29.5	1	3	248	0.00	30.320 
08:05	39.3	39.3	39.3	67	29.3	1	3	248	0.00	30.320 
08:10	39.3	39.3	39.3	67	29.3	1	4	248	0.00	30.320 
08:15	39.3	39.3	39.3	67	29.3	1	4	248	0.00	30.321 
08:20	39.3	39.3	39.3	67	29.3	1	5	248	0.00	30.321 
08:25	39.2	39.2	39.2	67	29.2	1	4	248	0.00	30.321 
08:30	39.2	39.2	39.2	68	29.5	0	2	248	0.00	30.317 
08:35	39.2	39.2	39.2	68	29.5	0	2	248	0.00	30.317 
08:40	39.2	39.2	39.2	68	29.5	1	4	248	0.00	30.317 
08:45	39.2	39.2	39.2	68	29.5	1	4	270	0.00	30.323 
08:50	39.2	39.2	39.2	68	29.5	1	4	270	0.00	30.323 
08:55	39.3	39.3	39.3	67	29.3	2	4	270	0.00	30.323 
09:00	39.3	39.3	39.3	67	29.3	2	4	270	0.00	30.333 
09:05	39.5	39.5	39.5	67	29.5	1	3	225	0.00	30.333 
09:10	39.5	39.5	39.5	67	29.5	2	4	248	0.00	30.333 
09:15	39.5	39.5	39.5	67	29.5	1	3	270	0.00	30.336 
09:20	39.6	39.6	39.6	67	29.6	0	2	270	0.00	30.336 
09:25	39.8	39.8	39.8	67	29.8	1	3	248	0.00	30.336 
09:30	40.1	40.1	40.1	67	30.0	1	4	225	0.00	30.338 
09:35	40.2	40.2	40.2	66	29.8	2	4	248	0.00	30.338 
09:40	40.5	40.5	40.5	66	30.0	1	3	292	0.00	30.338 
09:45	40.6	40.6	40.6	65	29.8	1	4	248	0.00	30.338 
09:50	40.6	40.6	40.6	65	29.8	1	5	225	0.00	30.338 
09:55	40.8	40.8	40.8	64	29.6	2	4	225	0.00	30.338 
10:00	40.8	40.8	40.8	65	30.0	1	4	270	0.00	30.347 
10:05	40.9	40.9	40.9	65	30.1	1	3	248	0.00	30.347 
10:10	40.9	40.9	40.9	65	30.1	1	3	248	0.00	30.347 
10:15	41.2	41.2	41.2	64	30.0	1	3	248	0.00	30.348 
10:20	41.2	41.2	41.2	63	29.6	1	3	248	0.00	30.348 
10:25	41.2	41.2	41.2	63	29.6	1	4	292	0.00	30.348 
10:30	41.5	41.5	41.5	62	29.5	2	5	270	0.00	30.350 
10:35	41.9	41.9	41.9	62	29.8	1	3	315	0.00	30.350 
10:40	42.3	42.3	42.3	61	29.8	2	4	270	0.00	30.350 
10:45	42.6	42.6	42.6	59	29.3	1	4	248	0.00	30.347 
10:50	42.8	42.8	42.8	60	29.9	1	3	315	0.00	30.347 
10:55	43.5	43.5	43.5	58	29.7	1	3	315	0.00	30.347 
11:00	43.6	43.6	43.6	58	29.8	2	4	338	0.00	30.342 
11:05	43.5	43.5	43.5	56	28.9	1	4	270	0.00	30.342 
11:10	43.1	43.1	43.1	56	28.5	1	2	270	0.00	30.342 
11:15	42.6	42.6	42.6	58	28.9	1	3	292	0.00	30.342 
11:20	42.6	42.6	42.6	58	28.9	1	3	248	0.00	30.342 
11:25	43.3	43.3	43.3	59	29.9	1	4	248	0.00	30.342 
11:30	44.2	44.2	44.2	57	29.9	2	6	248	0.00	30.338 
11:35	44.9	44.9	44.9	54	29.3	2	4	270	0.00	30.338 
11:40	45.2	45.2	45.2	55	30.0	2	4	248	0.00	30.338 
11:45	45.7	45.7	45.7	54	30.0	1	5	248	0.00	30.340 
11:50	45.2	45.2	45.2	52	28.6	2	4	338	0.00	30.340 
11:55	45.2	45.2	45.2	54	29.6	1	3	338	0.00	30.340 
12:00	45.1	45.1	45.1	53	29.0	1	4	248	0.00	30.338 
12:05	44.9	44.9	44.9	54	29.3	1	4	248	0.00	30.338 
12:10	45.4	45.4	45.4	54	29.7	1	4	248	0.00	30.338 
12:15	45.7	45.7	45.7	53	29.6	2	4	292	0.00	30.334 
12:20	45.8	45.8	45.8	52	29.2	1	3	248	0.00	30.334 
12:25	46.1	46.1	46.1	52	29.5	1	4	248	0.00	30.334 
12:30	46.2	46.2	46.2	51	29.1	1	3	248	0.00	30.331 
12:35	46.2	46.2	46.2	50	28.6	1	3	338	0.00	30.331 
12:40	46.4	46.4	46.4	50	28.8	1	3	315	0.00	30.331 
12:45	46.7	46.7	46.7	51	29.5	0	2	270	0.00	30.323 
12:50	47.1	47.1	47.1	50	29.4	1	4	248	0.00	30.323 
12:55	47.4	47.4	47.4	49	29.2	1	3	270	0.00	30.323 
13:00	47.7	47.7	47.7	48	29.0	1	4	315	0.00	30.317 
13:05	47.7	47.7	47.7	48	29.0	1	2	202	0.00	30.317 
13:10	47.6	47.6	47.6	48	28.9	1	3	292	0.00	30.317 
13:15	47.9	47.9	47.9	48	29.2	2	4	292	0.00	30.315 
13:20	48.2	48.2	48.2	48	29.4	1	5	248	0.00	30.315 
13:25	48.3	48.3	48.3	48	29.5	1	3	248	0.00	30.315 
13:30	48.6	48.6	48.6	46	28.8	1	3	248	0.00	30.307 
13:35	48.5	48.5	48.5	47	29.2	1	4	338	0.00	30.307 
13:40	48.5	48.5	48.5	46	28.7	1	4	270	0.00	30.307 
13:45	48.6	48.6	48.6	47	29.3	0	3	270	0.00	30.300 
13:50	48.8	48.8	48.8	45	28.4	1	5	338	0.00	30.300 
13:55	48.8	48.8	48.8	46	28.9	1	5	338	0.00	30.300 
14:00	48.9	48.9	48.9	45	28.5	1	3	270	0.00	30.298 
14:05	48.9	48.9	48.9	45	28.5	1	4	270	0.00	30.298 
14:10	49.1	49.1	49.1	45	28.7	1	2	270	0.00	30.298 
14:15	49.4	49.4	49.4	46	29.5	1	3	315	0.00	30.286 
14:20	49.5	49.5	49.5	46	29.6	1	3	248	0.00	30.286 
14:25	49.8	49.8	49.8	46	29.9	1	5	248	0.00	30.286 
14:30	50.1	50.1	50.1	44	29.0	2	4	270	0.00	30.282 
14:35	50.4	50.4	50.4	43	28.8	1	4	248	0.00	30.282 
14:40	50.5	50.5	50.5	42	28.3	2	7	248	0.00	30.282 
14:45	50.4	50.4	50.4	42	28.2	1	3	248	0.00	30.281 
14:50	50.5	50.5	50.5	43	28.8	1	5	248	0.00	30.281 
14:55	50.7	50.7	50.7	41	27.9	1	3	225	0.00	30.281 
15:00	50.7	50.7	50.7	41	27.9	1	4	315	0.00	30.272 
15:05	50.7	50.7	50.7	40	27.3	1	3	225	0.00	30.272 
15:10	51.1	51.1	51.1	41	28.2	1	4	248	0.00	30.272 
15:15	51.0	51.0	51.0	41	28.1	1	3	248	0.00	30.264 
15:20	51.1	51.1	51.1	42	28.8	1	3	292	0.00	30.264 
15:25	51.3	51.3	51.3	41	28.4	1	4	225	0.00	30.264 
15:30	51.1	51.1	51.1	39	27.0	2	5	292	0.00	30.263 
15:35	51.1	51.1	51.1	40	27.6	2	5	225	0.00	30.263 
15:40	51.3	51.3	51.3	41	28.4	1	5	248	0.00	30.263 
15:45	51.3	51.3	51.3	41	28.4	1	4	225	0.00	30.254 
15:50	51.6	51.6	51.6	41	28.7	1	3	248	0.00	30.254 
15:55	51.9	51.9	51.9	40	28.3	1	6	248	0.00	30.254 
16:00	52.3	52.3	52.3	40	28.7	2	6	248	0.00	30.255 
16:05	52.2	52.2	52.2	39	28.0	2	6	315	0.00	30.255 
16:10	52.3	52.3	52.3	39	28.1	1	5	248	0.00	30.255 
16:15	52.5	52.5	52.5	39	28.3	1	6	248	0.00	30.253 
16:20	52.6	52.6	52.6	39	28.4	2	4	225	0.00	30.253 
16:25	52.2	52.2	52.2	38	27.4	2	5	270	0.00	30.253 
16:30	51.7	51.7	51.7	40	28.2	2	4	248	0.00	30.252 
16:35	51.7	51.7	51.7	39	27.6	1	2	248	0.00	30.252 
16:40	51.4	51.4	51.4	39	27.3	2	4	270	0.00	30.252 
16:45	51.4	51.4	51.4	39	27.3	2	3	248	0.00	30.250 
16:50	51.4	51.4	51.4	39	27.3	2	5	270	0.00	30.250 
16:55	51.3	51.3	51.3	39	27.2	1	4	248	0.00	30.250 
17:00	51.1	51.1	51.1	40	27.6	1	4	248	0.00	30.248 
17:05	51.1	51.1	51.1	41	28.2	1	3	248	0.00	30.248 
17:10	51.3	51.3	51.3	40	27.8	1	3	248	0.00	30.248 
17:15	51.0	51.0	51.0	40	27.5	2	6	248	0.00	30.244 
17:20	50.7	50.7	50.7	40	27.3	1	5	248	0.00	30.244 
17:25	50.2	50.2	50.2	41	27.4	2	3	248	0.00	30.244 
17:30	49.9	49.9	49.9	42	27.7	1	3	248	0.00	30.252 
17:35	49.9	49.9	49.9	42	27.7	1	4	248	0.00	30.252 
17:40	49.9	49.9	49.9	42	27.7	1	4	248	0.00	30.252 
17:45	49.9	49.9	49.9	42	27.7	1	4	248	0.00	30.248 
17:50	49.8	49.8	49.8	43	28.2	1	3	248	0.00	30.248 
17:55	49.8	49.8	49.8	43	28.2	1	4	248	0.00	30.248 
18:00	49.6	49.6	49.6	43	28.0	1	3	248	0.00	30.249 
18:05	49.5	49.5	49.5	43	27.9	0	3	248	0.00	30.249 
18:10	49.4	49.4	49.4	44	28.4	0	2	248	0.00	30.249 
18:15	49.1	49.1	49.1	44	28.1	1	4	248	0.00	30.246 
18:20	48.8	48.8	48.8	44	27.9	1	2	248	0.00	30.246 
18:25	48.6	48.6	48.6	45	28.2	1	3	248	0.00	30.246 
18:30	48.3	48.3	48.3	46	28.5	0	2	248	0.00	30.242 
18:35	48.2	48.2	48.2	46	28.4	0	2	248	0.00	30.242 
18:40	47.9	47.9	47.9	46	28.1	0	3	248	0.00	30.242 
18:45	47.7	47.7	47.7	47	28.5	0	2	248	0.00	30.241 
18:50	47.4	47.4	47.4	47	28.2	0	2	248	0.00	30.241 
18:55	47.3	47.3	47.3	47	28.1	0	1	248	0.00	30.241 
19:00	47.1	47.1	47.1	47	27.9	0	1	248	0.00	30.240 
19:05	47.0	47.0	47.0	48	28.3	0	2	248	0.00	30.240 
19:10	46.8	46.8	46.8	48	28.2	0	3	248	0.00	30.240 
19:15	46.7	46.7	46.7	48	28.1	0	2	248	0.00	30.242 
19:20	46.5	46.5	46.5	48	27.9	0	3	248	0.00	30.242 
19:25	46.4	46.4	46.4	48	27.8	0	1	248	0.00	30.242 
19:30	46.2	46.2	46.2	49	28.1	0	1	248	0.00	30.247 
19:35	46.1	46.1	46.1	49	28.0	0	2	248	0.00	30.247 
19:40	46.0	46.0	46.0	49	27.9	0	2	248	0.00	30.247 
19:45	46.0	46.0	46.0	50	28.4	0	1	248	0.00	30.248 
19:50	45.8	45.8	45.8	50	28.2	0	3	248	0.00	30.248 
19:55	45.7	45.7	45.7	50	28.1	0	2	248	0.00	30.248 
20:00	45.4	45.4	45.4	50	27.9	0	2	248	0.00	30.243 
20:05	45.2	45.2	45.2	51	28.2	0	2	248	0.00	30.243 
20:10	45.1	45.1	45.1	51	28.1	0	1	248	0.00	30.243 
20:15	44.8	44.8	44.8	51	27.8	0	1	248	0.00	30.242 
20:20	44.5	44.5	44.5	52	28.0	0	1	248	0.00	30.242 
20:25	44.3	44.3	44.3	53	28.3	0	1	248	0.00	30.242 
20:30	44.1	44.1	44.1	53	28.1	0	0	---	0.00	30.242 
20:35	43.8	43.8	43.8	53	27.8	0	1	248	0.00	30.242 
20:40	43.5	43.5	43.5	54	28.0	0	0	---	0.00	30.242 
20:45	42.9	42.9	42.9	55	27.9	0	1	248	0.00	30.229 
20:50	42.6	42.6	42.6	56	28.0	0	1	248	0.00	30.229 
20:55	42.3	42.3	42.3	57	28.2	0	0	---	0.00	30.229 
21:00	42.1	42.1	42.1	57	28.0	0	1	248	0.00	30.229 
21:05	41.9	41.9	41.9	58	28.2	0	1	248	0.00	30.229 
21:10	41.8	41.8	41.8	58	28.1	0	0	---	0.00	30.229 
21:15	41.8	41.8	41.8	58	28.1	0	1	248	0.00	30.219 
21:20	41.8	41.8	41.8	59	28.5	0	3	248	0.00	30.219 
21:25	41.6	41.6	41.6	59	28.3	0	1	248	0.00	30.219 
21:30	41.6	41.6	41.6	60	28.8	0	1	248	0.00	30.215 
21:35	41.6	41.6	41.6	60	28.8	0	1	248	0.00	30.215 
21:40	41.5	41.5	41.5	60	28.7	0	1	248	0.00	30.215 
21:45	41.3	41.3	41.3	60	28.5	0	0	---	0.00	30.209 
21:50	41.2	41.2	41.2	60	28.4	0	1	248	0.00	30.209 
21:55	41.1	41.1	41.1	61	28.7	0	1	248	0.00	30.209 
22:00	40.9	40.9	40.9	61	28.5	0	1	248	0.00	30.202 
22:05	40.9	40.9	40.9	61	28.5	0	2	248	0.00	30.202 
22:10	40.9	40.9	40.9	61	28.5	0	1	248	0.00	30.202 
22:15	40.9	40.9	40.9	61	28.5	0	1	248	0.00	30.202 
22:20	40.8	40.8	40.8	61	28.4	0	1	248	0.00	30.202 
22:25	40.5	40.5	40.5	62	28.5	0	0	---	0.00	30.202 
22:30	40.1	40.1	40.1	62	28.1	0	0	---	0.00	30.202 
22:35	39.6	39.6	39.6	63	28.1	0	0	---	0.00	30.202 
22:40	39.3	39.3	39.3	64	28.2	0	0	---	0.00	30.202 
22:45	38.9	38.9	38.9	64	27.8	0	0	---	0.00	30.200 
22:50	38.5	38.5	38.5	65	27.8	0	0	---	0.00	30.200 
22:55	38.0	38.0	38.0	66	27.7	0	0	---	0.00	30.200 
23:00	37.6	37.6	37.6	67	27.7	0	0	---	0.00	30.198 
23:05	37.3	37.3	37.3	68	27.7	0	0	---	0.00	30.198 
23:10	37.2	37.2	37.2	69	28.0	0	0	---	0.00	30.198 
23:15	37.2	37.2	37.2	69	28.0	0	0	---	0.00	30.199 
23:20	37.0	37.0	37.0	69	27.8	0	1	248	0.00	30.199 
23:25	37.2	37.2	37.2	69	28.0	0	0	---	0.00	30.199 
23:30	37.3	37.3	37.3	69	28.1	0	0	---	0.00	30.193 
23:35	37.5	37.5	37.5	69	28.3	0	1	248	0.00	30.193 
23:40	37.5	37.5	37.5	68	27.9	0	0	---	0.00	30.193 
23:45	37.5	37.5	37.5	69	28.3	0	0	---	0.00	30.185 
23:50	37.3	37.3	37.3	69	28.1	0	0	---	0.00	30.185 
23:55	37.2	37.2	37.2	69	28.0	0	0	---	0.00	30.185 

CoCoRaHS
IN-AL-39
A2 Web Hosting
Creative Commons License
GoDaddy
search engine by freefind advanced

loaded 2018-11-17 15:06:08 • last modified 2010-11-18 10:43:29
Privacy PolicyDisclaimer
• wx.awcolley.com is powered by PmWiki v.2002016 •
• all content (unless otherwise noted) © 2018 A W Colley